[keps] orb10322.amsat
Ray Hoad
ray.hoad at mypbmail.com
Thu Nov 18 20:05:59 PST 2010
SB KEPS @ AMSAT $ORB10322.O
Orbital Elements 10322.OSCAR
HR AMSAT ORBITAL ELEMENTS FOR OSCAR SATELLITES
FROM WA5QGD FORT WORTH,TX November 18, 2010
BID: ORB10322.O
TO ALL RADIO AMATEURS BT
Satellite: AO-07
Catalog number: 07530
Epoch time: 10321.66998435
Element set: 0931
Inclination: 101.3982 deg
RA of node: 331.5589 deg
Eccentricity: 0.0011965
Arg of perigee: 334.5287 deg
Mean anomaly: 025.5189 deg
Mean motion: 12.53580203 rev/day
Decay rate: -2.7e-07 rev/day^2
Epoch rev: 64768
Checksum: 315
Satellite: FO-29
Catalog number: 24278
Epoch time: 10322.88634052
Element set: 442
Inclination: 098.5190 deg
RA of node: 130.6821 deg
Eccentricity: 0.0351408
Arg of perigee: 082.5344 deg
Mean anomaly: 281.5579 deg
Mean motion: 13.52954725 rev/day
Decay rate: 4.2e-07 rev/day^2
Epoch rev: 70402
Checksum: 298
Satellite: SO-33
Catalog number: 25509
Epoch time: 10321.46501881
Element set: 0839
Inclination: 031.4344 deg
RA of node: 001.7162 deg
Eccentricity: 0.0353891
Arg of perigee: 190.1852 deg
Mean anomaly: 169.1545 deg
Mean motion: 14.28339310 rev/day
Decay rate: 5.5e-07 rev/day^2
Epoch rev: 62998
Checksum: 298
Satellite: RS-22
Catalog number: 27939
Epoch time: 10322.64626930
Element set: 734
Inclination: 097.8681 deg
RA of node: 181.3854 deg
Eccentricity: 0.0012745
Arg of perigee: 294.8934 deg
Mean anomaly: 065.0936 deg
Mean motion: 14.63477879 rev/day
Decay rate: 1.69e-06 rev/day^2
Epoch rev: 38154
Checksum: 351
Satellite: VO-52
Catalog number: 28650
Epoch time: 10321.55442529
Element set: 0650
Inclination: 097.6731 deg
RA of node: 008.8432 deg
Eccentricity: 0.0027797
Arg of perigee: 132.8943 deg
Mean anomaly: 227.4629 deg
Mean motion: 14.81851221 rev/day
Decay rate: 1.23e-06 rev/day^2
Epoch rev: 29940
Checksum: 307
Satellite: SO-67
Catalog number: 35870
Epoch time: 10322.78816145
Element set: 299
Inclination: 097.3126 deg
RA of node: 007.6735 deg
Eccentricity: 0.0001520
Arg of perigee: 295.4552 deg
Mean anomaly: 197.7991 deg
Mean motion: 15.21189295 rev/day
Decay rate: 1.448e-05 rev/day^2
Epoch rev: 6495
Checksum: 336
Satellite: HO-68
Catalog number: 36122
Epoch time: 10322.62059575
Element set: 857
Inclination: 100.4495 deg
RA of node: 021.3458 deg
Eccentricity: 0.0007535
Arg of perigee: 348.0518 deg
Mean anomaly: 012.0414 deg
Mean motion: 13.16282735 rev/day
Decay rate: -4.5e-07 rev/day^2
Epoch rev: 4453
Checksum: 277
/EX
SB KEPS @ AMSAT $ORB10322.D
Orbital Elements 10322.MICROS
HR AMSAT ORBITAL ELEMENTS FOR THE MICROSATS
FROM WA5QGD FORT WORTH,TX November 18, 2010
BID: ORB10322.D
TO ALL RADIO AMATEURS BT
Satellite: UO-11
Catalog number: 14781
Epoch time: 10322.72838632
Element set: 395
Inclination: 098.0369 deg
RA of node: 014.7645 deg
Eccentricity: 0.0010230
Arg of perigee: 098.5808 deg
Mean anomaly: 261.6566 deg
Mean motion: 14.79860907 rev/day
Decay rate: 4.84e-06 rev/day^2
Epoch rev: 43466
Checksum: 325
Satellite: AO-16
Catalog number: 20439
Epoch time: 10322.62119090
Element set: 46
Inclination: 098.3549 deg
RA of node: 274.6145 deg
Eccentricity: 0.0011899
Arg of perigee: 069.5553 deg
Mean anomaly: 290.6910 deg
Mean motion: 14.31883761 rev/day
Decay rate: 6.2e-07 rev/day^2
Epoch rev: 8748
Checksum: 314
Satellite: LO-19
Catalog number: 20442
Epoch time: 10322.80382230
Element set: 956
Inclination: 098.3168 deg
RA of node: 279.9718 deg
Eccentricity: 0.0012743
Arg of perigee: 064.3747 deg
Mean anomaly: 295.8756 deg
Mean motion: 14.32112804 rev/day
Decay rate: 9.7e-07 rev/day^2
Epoch rev: 8768
Checksum: 326
Satellite: AO-27
Catalog number: 22825
Epoch time: 10322.72200575
Element set: 678
Inclination: 098.5050 deg
RA of node: 266.8100 deg
Eccentricity: 0.0008485
Arg of perigee: 169.3347 deg
Mean anomaly: 190.8021 deg
Mean motion: 14.29316868 rev/day
Decay rate: 1.20e-06 rev/day^2
Epoch rev: 89412
Checksum: 299
Satellite: IO-26
Catalog number: 22826
Epoch time: 10322.75970339
Element set: 416
Inclination: 098.4996 deg
RA of node: 267.3930 deg
Eccentricity: 0.0009064
Arg of perigee: 163.8839 deg
Mean anomaly: 196.2635 deg
Mean motion: 14.29574889 rev/day
Decay rate: 7.3e-07 rev/day^2
Epoch rev: 89424
Checksum: 359
Satellite: GO-32
Catalog number: 25397
Epoch time: 10322.84256888
Element set: 335
Inclination: 098.3178 deg
RA of node: 321.8055 deg
Eccentricity: 0.0001723
Arg of perigee: 138.4030 deg
Mean anomaly: 221.7289 deg
Mean motion: 14.23189174 rev/day
Decay rate: -5.5e-07 rev/day^2
Epoch rev: 64204
Checksum: 300
Satellite: NO-44
Catalog number: 26931
Epoch time: 10321.69637574
Element set: 609
Inclination: 067.0506 deg
RA of node: 168.4596 deg
Eccentricity: 0.0005783
Arg of perigee: 274.0379 deg
Mean anomaly: 086.0050 deg
Mean motion: 14.29619758 rev/day
Decay rate: -2.51e-06 rev/day^2
Epoch rev: 47669
Checksum: 338
Satellite: SO-50
Catalog number: 27607
Epoch time: 10322.27335041
Element set: 321
Inclination: 064.5580 deg
RA of node: 248.4719 deg
Eccentricity: 0.0047899
Arg of perigee: 015.1534 deg
Mean anomaly: 345.0991 deg
Mean motion: 14.71607156 rev/day
Decay rate: 2.14e-06 rev/day^2
Epoch rev: 42505
Checksum: 287
Satellite: CO-55
Catalog number: 27844
Epoch time: 10321.62418058
Element set: 980
Inclination: 098.7096 deg
RA of node: 328.4033 deg
Eccentricity: 0.0010577
Arg of perigee: 087.1900 deg
Mean anomaly: 273.0500 deg
Mean motion: 14.20746617 rev/day
Decay rate: 1.22e-06 rev/day^2
Epoch rev: 38287
Checksum: 298
Satellite: CO-57
Catalog number: 27848
Epoch time: 10322.52155456
Element set: 929
Inclination: 098.7148 deg
RA of node: 328.4141 deg
Eccentricity: 0.0010475
Arg of perigee: 089.2998 deg
Mean anomaly: 270.9372 deg
Mean motion: 14.20534957 rev/day
Decay rate: 6.9e-07 rev/day^2
Epoch rev: 38295
Checksum: 347
Satellite: AO-51
Catalog number: 28375
Epoch time: 10321.49753592
Element set: 0827
Inclination: 098.0750 deg
RA of node: 306.3774 deg
Eccentricity: 0.0084625
Arg of perigee: 352.8184 deg
Mean anomaly: 007.1790 deg
Mean motion: 14.40709901 rev/day
Decay rate: 5.7e-07 rev/day^2
Epoch rev: 33558
Checksum: 320
Satellite: CP3
Catalog number: 31129
Epoch time: 10321.65012713
Element set: 725
Inclination: 097.9235 deg
RA of node: 352.8807 deg
Eccentricity: 0.0103798
Arg of perigee: 117.6628 deg
Mean anomaly: 243.5159 deg
Mean motion: 14.52334741 rev/day
Decay rate: 1.61e-06 rev/day^2
Epoch rev: 19013
Checksum: 286
Satellite: CO-65
Catalog number: 32785
Epoch time: 10322.26994319
Element set: 839
Inclination: 097.8788 deg
RA of node: 024.9160 deg
Eccentricity: 0.0015502
Arg of perigee: 140.1351 deg
Mean anomaly: 220.1059 deg
Mean motion: 14.81765703 rev/day
Decay rate: 3.52e-06 rev/day^2
Epoch rev: 13830
Checksum: 300
Satellite: KKS-1
Catalog number: 33493
Epoch time: 10322.42335880
Element set: 48
Inclination: 098.1020 deg
RA of node: 083.4048 deg
Eccentricity: 0.0020039
Arg of perigee: 006.0379 deg
Mean anomaly: 354.1076 deg
Mean motion: 14.81203727 rev/day
Decay rate: 9.88e-06 rev/day^2
Epoch rev: 9831
Checksum: 279
Satellite: SOHLA-1
Catalog number: 33496
Epoch time: 10321.84144663
Element set: 257
Inclination: 098.0683 deg
RA of node: 069.0213 deg
Eccentricity: 0.0007707
Arg of perigee: 077.1520 deg
Mean anomaly: 283.0546 deg
Mean motion: 14.69534120 rev/day
Decay rate: 2.02e-06 rev/day^2
Epoch rev: 9744
Checksum: 282
Satellite: TISAT-1
Catalog number: 36799
Epoch time: 10322.79257837
Element set: 323
Inclination: 098.1310 deg
RA of node: 023.7185 deg
Eccentricity: 0.0014402
Arg of perigee: 234.1878 deg
Mean anomaly: 125.7987 deg
Mean motion: 14.80235069 rev/day
Decay rate: 6.56e-06 rev/day^2
Epoch rev: 1918
Checksum: 314
Satellite: STUDSAT
Catalog number: 36801
Epoch time: 10321.75603355
Element set: 0109
Inclination: 098.1332 deg
RA of node: 022.5615 deg
Eccentricity: 0.0013084
Arg of perigee: 227.3338 deg
Mean anomaly: 132.6771 deg
Mean motion: 14.79808596 rev/day
Decay rate: 1.858e-05 rev/day^2
Epoch rev: 01902
Checksum: 286
/EX
SB KEPS @ AMSAT $ORB10322.W
Orbital Elements 10322.WEATHER
HR AMSAT ORBITAL ELEMENTS FOR WEATHER SATELLITES
FROM WA5QGD FORT WORTH,TX November 18, 2010
BID: ORB10322.W
TO ALL RADIO AMATEURS BT
Satellite: NOAA-10
Catalog number: 16969
Epoch time: 10321.59319897
Element set: 0278
Inclination: 098.6440 deg
RA of node: 349.0171 deg
Eccentricity: 0.0012778
Arg of perigee: 121.1297 deg
Mean anomaly: 239.1131 deg
Mean motion: 14.27434314 rev/day
Decay rate: 6.4e-07 rev/day^2
Epoch rev: 25746
Checksum: 309
Satellite: NOAA-11
Catalog number: 19531
Epoch time: 10321.69020581
Element set: 0287
Inclination: 098.7648 deg
RA of node: 048.0675 deg
Eccentricity: 0.0012356
Arg of perigee: 070.8504 deg
Mean anomaly: 289.4020 deg
Mean motion: 14.14941791 rev/day
Decay rate: -1.55e-06 rev/day^2
Epoch rev: 14284
Checksum: 296
Satellite: NOAA-12
Catalog number: 21263
Epoch time: 10321.77120538
Element set: 0779
Inclination: 098.7618 deg
RA of node: 334.8893 deg
Eccentricity: 0.0013375
Arg of perigee: 081.1000 deg
Mean anomaly: 279.1689 deg
Mean motion: 14.25667511 rev/day
Decay rate: 7.1e-07 rev/day^2
Epoch rev: 01428
Checksum: 300
Satellite: MET-3/5
Catalog number: 21655
Epoch time: 10321.78912014
Element set: 966
Inclination: 082.5589 deg
RA of node: 200.1109 deg
Eccentricity: 0.0013300
Arg of perigee: 330.8130 deg
Mean anomaly: 029.2292 deg
Mean motion: 13.17026223 rev/day
Decay rate: 5.1e-07 rev/day^2
Epoch rev: 92589
Checksum: 265
Satellite: MET-2/21
Catalog number: 22782
Epoch time: 10321.66833701
Element set: 940
Inclination: 082.5447 deg
RA of node: 130.6955 deg
Eccentricity: 0.0021867
Arg of perigee: 335.9778 deg
Mean anomaly: 024.0363 deg
Mean motion: 13.83649723 rev/day
Decay rate: 1.0e-08 rev/day^2
Epoch rev: 86930
Checksum: 308
Satellite: OKEAN-4
Catalog number: 23317
Epoch time: 10321.76912959
Element set: 0398
Inclination: 082.5416 deg
RA of node: 210.5000 deg
Eccentricity: 0.0023841
Arg of perigee: 094.8975 deg
Mean anomaly: 265.4945 deg
Mean motion: 14.82895202 rev/day
Decay rate: 3.19e-06 rev/day^2
Epoch rev: 86921
Checksum: 314
